Flag Weather past 2 weeks in Samsun, Turkey

Now
36 °F

Passing clouds.


Feels Like: 36 °F
Forecast: 42 / 53 °F
Wind: No wind

Location: Samsun / Carsamba

Current Time: Nov 29, 2014 at 4:37:26 AM

Latest Report: Nov 29, 2014 at 3:50 AM


Visibility: N/A

Pressure: 30.27 "Hg

Humidity: 100%

Dew point: 36 °F

Location of SamsunLocation

Historic Weather in Samsun — Graph

°F

Samsun temperature yesterday

Maximum temperature yesterday: 54 °F (at 11:50 AM)
Minimum temperature yesterday: 37 °F (at 11:50 PM)
Average temperature yesterday: 46 °F

Past Weeks' High & Low Weather Summary

 TemperatureHumidityPressure
High75 °F (Nov 14, 12:50 PM)100% (Nov 14, 2:50 AM)30.33 "Hg (Nov 14, 2:50 AM)
Low36 °F (Nov 29, 12:50 AM)24% (Nov 14, 12:50 PM)29.80 "Hg (Nov 22, 4:50 AM)
Average52 °F84%30.07 "Hg
* Reported Nov 14 2:50 AM — Nov 29 2:50 AM, Samsun, Weather by CustomWeather, © 2014

Note: Actual official high and low records may vary slightly from our data, if they occured in-between our weather recording intervals... More about our weather records

Advertising

Samsun weather history for previous 24 hours

 ConditionsComfort  
Time TempWeatherWind HumidityBarometerVisibility
2:50 AM
Nov 29
36 °FPassing clouds.5 mph100%30.27 "HgN/A
1:50 AM37 °FPassing clouds.5 mph93%30.30 "HgN/A
12:50 AM36 °FPassing clouds.5 mph100%30.30 "HgN/A
11:50 PM
Nov 28
37 °FPassing clouds.5 mph93%30.30 "HgN/A
10:50 PM39 °FPassing clouds.5 mph100%30.30 "HgN/A
9:50 PM39 °FPassing clouds.3 mph100%30.33 "HgN/A
8:50 PM41 °FPassing clouds.3 mph93%30.30 "HgN/A
7:50 PM41 °FPassing clouds.3 mph93%30.33 "HgN/A
6:50 PM43 °FPassing clouds.1 mph93%30.33 "HgN/A
5:50 PM46 °FPassing clouds.1 mph82%30.33 "HgN/A
4:50 PM48 °FPassing clouds.2 mph82%30.30 "HgN/A
3:50 PM50 °FPartly sunny.2 mph71%30.30 "HgN/A
2:50 PM52 °FPartly sunny.3 mph67%30.30 "HgN/A
1:50 PM52 °FPartly sunny.6 mph67%30.27 "HgN/A
12:50 PM54 °FBroken clouds.5 mph63%30.27 "HgN/A
11:50 AM54 °FBroken clouds.2 mph63%30.27 "HgN/A
10:50 AM52 °FBroken clouds.1 mph67%30.30 "HgN/A
9:50 AM48 °FBroken clouds.1 mph87%30.30 "HgN/A
8:50 AM46 °FPartly sunny.2 mph87%30.30 "HgN/A
7:50 AM45 °FPartly sunny.5 mph93%30.30 "HgN/A
6:50 AM45 °FBroken clouds.5 mph93%30.27 "HgN/A
5:50 AM45 °FPartly cloudy.3 mph93%30.27 "HgN/A
4:50 AM45 °FPartly cloudy.5 mph93%30.27 "HgN/A
Weather by CustomWeather, © 2014

See weather overviewHow to use our weather pages